{"data":{"norad_id":60563,"epoch":"2026-09-19T22:06:32.767776Z","epoch_age_seconds":68221,"freshness":"FRESH","line1":"1 60563U 24149CZ  26262.92121259  .00037999  00000+0  70343-3 0  9995","line2":"2 60563  97.3695 350.0068 0003677 307.8311  52.2606 15.48919199117061","mean_motion":15.48919199,"eccentricity":0.0003677,"inclination_deg":97.3695,"raan_deg":350.0068,"arg_perigee_deg":307.8311,"mean_anomaly_deg":52.2606,"bstar":0.00070343,"rev_number":11706,"period_min":92.968051589113,"perigee_km":417.38693694218,"apogee_km":422.38620347571,"semimajor_km":6798.0235702089,"source":"CELESTRAK","updated_at":"2026-09-20T09:00:34.717038Z"}}